| time (UTC) | temp F | wind direction | speed knots | gust knots | rain 1hr in | rain 24hr in | rain mn in | humidity % | barometer mb |
| 20260508090505 | 54 | 349 | 0.9 | 4.3 | 0.00 | 0.00 | 0.00 | 83 | 1018.2 |
| 20260508084506 | 53 | 353 | 1.7 | 7.0 | 0.00 | 0.00 | 0.00 | 86 | 1017.9 |
| 20260508084006 | 53 | 121 | 4.3 | 7.0 | 0.00 | 0.00 | 0.00 | 85 | 1017.9 |
| 20260508083507 | 53 | 335 | 2.6 | 4.3 | 0.00 | 0.00 | 0.00 | 86 | 1017.9 |
| 20260508083005 | 53 | 110 | 3.5 | 8.7 | 0.00 | 0.00 | 0.00 | 86 | 1017.7 |
| 20260508081506 | 52 | 337 | 0.9 | 7.0 | 0.00 | 0.00 | 0.00 | 87 | 1018.0 |
| 20260508081006 | 52 | 125 | 4.3 | 7.0 | 0.00 | 0.00 | 0.00 | 87 | 1017.6 |
| 20260508080505 | 52 | 97 | 1.7 | 2.6 | 0.00 | 0.00 | 0.00 | 87 | 1017.9 |
| 20260508080005 | 52 | 83 | 1.7 | 7.0 | 0.00 | 0.00 | 0.00 | 88 | 1017.9 |
| 20260508074006 | 51 | 89 | 2.6 | 7.0 | 0.00 | 0.00 | 0.00 | 88 | 1017.9 |
| 20260508073005 | 51 | 90 | 1.7 | 6.1 | 0.00 | 0.00 | 0.00 | 89 | 1017.9 |
| 20260508071005 | 50 | 92 | 2.6 | 6.1 | 0.00 | 0.00 | 0.00 | 89 | 1017.9 |
| 20260508070506 | 50 | 116 | 3.5 | 7.0 | 0.00 | 0.00 | 0.00 | 90 | 1017.9 |
| 20260508070005 | 49 | 91 | 3.5 | 6.1 | 0.00 | 0.00 | 0.00 | 90 | 1017.9 |
| 20260508064006 | 49 | 91 | 2.6 | 6.1 | 0.00 | 0.00 | 0.00 | 91 | 1017.9 |
| 20260508061506 | 49 | 35 | 1.7 | 2.6 | 0.00 | 0.00 | 0.00 | 92 | 1017.6 |
| 20260508060505 | 48 | 184 | 1.7 | 4.3 | 0.00 | 0.00 | 0.00 | 93 | 1017.6 |
| 20260508060006 | 48 | 115 | 2.6 | 6.1 | 0.00 | 0.00 | 0.00 | 93 | 1017.6 |
| 20260508054505 | 48 | 79 | 2.6 | 7.0 | 0.00 | 0.00 | 0.00 | 93 | 1017.5 |
| 20260508053507 | 48 | 102 | 1.7 | 4.3 | 0.00 | 0.00 | 0.00 | 93 | 1017.6 |
| 20260508053005 | 48 | 83 | 2.6 | 4.3 | 0.00 | 0.00 | 0.00 | 93 | 1017.3 |
| 20260508051506 | 48 | 68 | 0.0 | 4.3 | 0.00 | 0.00 | 0.00 | 94 | 1017.3 |
| 20260508051006 | 48 | 115 | 1.7 | 4.3 | 0.00 | 0.00 | 0.00 | 94 | 1017.4 |
| 20260508050506 | 47 | 83 | 0.9 | 6.1 | 0.00 | 0.00 | 0.00 | 94 | 1017.3 |
| 20260508050005 | 48 | 76 | 0.0 | 7.0 | 0.00 | 0.00 | 0.00 | 94 | 1017.3 |
| 20260508044506 | 47 | 358 | 0.0 | 2.6 | 0.00 | 0.00 | 0.00 | 95 | 1016.9 |
| 20260508044006 | 47 | 352 | 0.9 | 2.6 | 0.00 | 0.00 | 0.00 | 95 | 1016.9 |
| 20260508043507 | 47 | 135 | 0.0 | 0.0 | 0.00 | 0.00 | 0.00 | 96 | 1016.9 |
| 20260508043005 | 47 | 80 | 0.0 | 1.7 | 0.00 | 0.00 | 0.00 | 96 | 1016.9 |
| 20260508041506 | 47 | 102 | 0.9 | 1.7 | 0.00 | 0.00 | 0.00 | 96 | 1016.6 |
| 20260508041005 | 47 | 133 | 0.0 | 1.7 | 0.00 | 0.00 | 0.00 | 96 | 1016.6 |
| 20260508040505 | 47 | 138 | 0.0 | 2.6 | 0.00 | 0.00 | 0.00 | 96 | 1016.9 |
| 20260508040005 | 47 | 105 | 1.7 | 2.6 | 0.00 | 0.00 | 0.00 | 97 | 1016.9 |
| 20260508034506 | 47 | 167 | 0.0 | 2.6 | 0.00 | 0.00 | 0.00 | 97 | 1016.9 |
| 20260508034006 | 47 | 13 | 0.0 | 0.0 | 0.00 | 0.00 | 0.00 | 97 | 1016.6 |
| 20260508033506 | 47 | 99 | 0.9 | 4.3 | 0.00 | 0.00 | 0.00 | 97 | 1016.6 |
| 20260508033006 | 47 | 84 | 0.0 | 2.6 | 0.00 | 0.00 | 0.00 | 97 | 1016.8 |
| 20260508031505 | 47 | 149 | 0.0 | 1.7 | 0.00 | 0.00 | 0.00 | 97 | 1016.9 |
| 20260508031005 | 47 | 113 | 0.0 | 2.6 | 0.00 | 0.00 | 0.00 | 97 | 1016.9 |
| 20260508030505 | 47 | 236 | 0.0 | 0.0 | 0.00 | 0.00 | 0.00 | 98 | 1016.6 |
| 20260508030005 | 47 | 249 | 0.0 | 0.0 | 0.00 | 0.00 | 0.00 | 98 | 1016.6 |
| 20260508024505 | 46 | 233 | 0.0 | 0.0 | 0.00 | 0.00 | 0.00 | 98 | 1016.6 |
| 20260508021505 | 45 | 283 | 0.0 | 0.0 | 0.00 | 0.00 | 0.00 | 98 | 1016.9 |
| 20260508021005 | 45 | 283 | 0.0 | 0.0 | 0.00 | 0.00 | 0.00 | 98 | 1016.6 |
| 20260508020505 | 44 | 283 | 0.0 | 0.0 | 0.00 | 0.00 | 0.00 | 98 | 1016.6 |
| 20260508020006 | 44 | 283 | 0.0 | 0.0 | 0.00 | 0.00 | 0.00 | 98 | 1016.6 |
| 20260508014505 | 43 | 283 | 0.0 | 0.0 | 0.00 | 0.00 | 0.00 | 98 | 1016.6 |
| 20260508014006 | 43 | 283 | 0.0 | 0.0 | 0.00 | 0.00 | 0.00 | 98 | 1016.6 |
| 20260508013505 | 43 | 283 | 0.0 | 0.0 | 0.00 | 0.00 | 0.00 | 98 | 1016.6 |
| 20260508013006 | 42 | 283 | 0.0 | 0.0 | 0.00 | 0.00 | 0.00 | 98 | 1016.6 |
| 20260508011506 | 42 | 283 | 0.0 | 0.0 | 0.00 | 0.00 | 0.00 | 98 | 1016.6 |
| 20260508011005 | 41 | 283 | 0.0 | 0.0 | 0.00 | 0.00 | 0.00 | 98 | 1016.6 |
| 20260508010504 | 41 | 283 | 0.0 | 0.0 | 0.00 | 0.00 | 0.00 | 98 | 1016.6 |
| 20260508010005 | 41 | 283 | 0.0 | 0.0 | 0.00 | 0.00 | 0.00 | 98 | 1016.4 |
| 20260508004505 | 41 | 283 | 0.0 | 0.0 | 0.00 | 0.00 | 0.00 | 98 | 1016.6 |
| 20260508004005 | 41 | 283 | 0.0 | 0.0 | 0.00 | 0.00 | 0.00 | 98 | 1016.6 |
| 20260508003006 | 42 | 283 | 0.0 | 1.7 | 0.00 | 0.00 | 0.00 | 98 | 1016.6 |
| 20260508001505 | 41 | 283 | 0.0 | 0.0 | 0.00 | 0.00 | 0.00 | 97 | 1016.6 |
| 20260508001005 | 41 | 283 | 0.0 | 0.0 | 0.00 | 0.00 | 0.00 | 97 | 1016.6 |
| 20260508000505 | 42 | 283 | 0.0 | 0.0 | 0.00 | 0.00 | 0.00 | 97 | 1016.6 |
| 20260508000005 | 42 | 283 | 0.0 | 0.0 | 0.00 | 0.00 | 0.00 | 97 | 1016.6 |
| 20260507234505 | 42 | 283 | 0.0 | 0.0 | 0.00 | 0.00 | 0.00 | 97 | 1016.6 |
| 20260507234005 | 42 | 283 | 0.0 | 0.0 | 0.00 | 0.00 | 0.00 | 97 | 1016.6 |
| 20260507233505 | 43 | 283 | 0.0 | 0.0 | 0.00 | 0.00 | 0.00 | 97 | 1016.6 |
| 20260507233005 | 43 | 283 | 0.0 | 0.0 | 0.00 | 0.00 | 0.00 | 97 | 1016.6 |
| 20260507231506 | 43 | 283 | 0.0 | 0.0 | 0.00 | 0.00 | 0.00 | 97 | 1016.6 |
| 20260507231005 | 43 | 283 | 0.0 | 0.0 | 0.00 | 0.00 | 0.00 | 97 | 1016.9 |
| 20260507230504 | 43 | 283 | 0.0 | 0.0 | 0.00 | 0.00 | 0.00 | 97 | 1016.9 |
| 20260507230006 | 44 | 283 | 0.0 | 1.7 | 0.00 | 0.00 | 0.00 | 97 | 1016.8 |
| 20260507224505 | 43 | 283 | 0.0 | 0.0 | 0.00 | 0.00 | 0.00 | 96 | 1016.8 |
| 20260507223505 | 43 | 283 | 0.0 | 0.0 | 0.00 | 0.00 | 0.00 | 96 | 1016.8 |
| 20260507221506 | 44 | 283 | 0.0 | 0.0 | 0.00 | 0.00 | 0.00 | 96 | 1016.9 |
| 20260507220504 | 44 | 283 | 0.0 | 0.0 | 0.00 | 0.00 | 0.00 | 95 | 1016.6 |
| 20260507220005 | 44 | 284 | 0.0 | 0.0 | 0.00 | 0.08 | 0.00 | 95 | 1016.6 |
| 20260507214505 | 45 | 284 | 0.0 | 0.0 | 0.00 | 0.08 | 0.00 | 95 | 1016.6 |
| 20260507214005 | 46 | 284 | 0.0 | 0.0 | 0.00 | 0.08 | 0.00 | 95 | 1016.6 |
| 20260507213505 | 46 | 284 | 0.0 | 0.0 | 0.00 | 0.08 | 0.00 | 94 | 1016.4 |
| 20260507213005 | 46 | 284 | 0.0 | 0.0 | 0.00 | 0.08 | 0.00 | 94 | 1016.6 |
| 20260507211506 | 47 | 284 | 0.0 | 0.0 | 0.00 | 0.08 | 0.00 | 93 | 1016.3 |
| 20260507211005 | 47 | 284 | 0.0 | 0.0 | 0.00 | 0.08 | 0.00 | 93 | 1016.4 |
| 20260507210505 | 48 | 284 | 0.0 | 0.0 | 0.00 | 0.08 | 0.00 | 93 | 1016.3 |
| 20260507210005 | 48 | 284 | 0.0 | 0.0 | 0.00 | 0.08 | 0.00 | 93 | 1016.3 |
| 20260507204005 | 49 | 284 | 0.0 | 0.0 | 0.00 | 0.08 | 0.00 | 93 | 1016.3 |
| 20260507203505 | 49 | 284 | 0.0 | 0.0 | 0.00 | 0.08 | 0.00 | 92 | 1016.3 |
| 20260507203005 | 49 | 284 | 0.0 | 0.0 | 0.00 | 0.08 | 0.00 | 92 | 1016.3 |
| 20260507201505 | 49 | 284 | 0.0 | 0.0 | 0.00 | 0.08 | 0.00 | 92 | 1015.9 |
| 20260507201005 | 49 | 284 | 0.0 | 0.0 | 0.00 | 0.08 | 0.00 | 92 | 1015.9 |
| 20260507200505 | 49 | 284 | 0.0 | 0.0 | 0.00 | 0.08 | 0.00 | 92 | 1016.0 |
| 20260507200005 | 50 | 284 | 0.0 | 0.0 | 0.00 | 0.08 | 0.00 | 91 | 1015.9 |
| 20260507194505 | 49 | 284 | 0.0 | 0.0 | 0.00 | 0.08 | 0.00 | 91 | 1015.9 |
| 20260507194005 | 49 | 284 | 0.0 | 0.0 | 0.00 | 0.08 | 0.00 | 91 | 1015.9 |
| 20260507193506 | 49 | 284 | 0.0 | 0.0 | 0.00 | 0.08 | 0.00 | 91 | 1015.6 |
| 20260507193005 | 49 | 284 | 0.0 | 0.0 | 0.00 | 0.08 | 0.00 | 91 | 1015.6 |
| 20260507191505 | 50 | 284 | 0.0 | 0.0 | 0.00 | 0.08 | 0.00 | 90 | 1015.6 |
| 20260507191005 | 50 | 284 | 0.0 | 0.0 | 0.00 | 0.08 | 0.00 | 90 | 1015.6 |
| 20260507190505 | 50 | 284 | 0.0 | 0.0 | 0.00 | 0.08 | 0.00 | 90 | 1015.6 |
| 20260507190005 | 50 | 284 | 0.0 | 0.0 | 0.00 | 0.08 | 0.00 | 89 | 1015.6 |
| 20260507184505 | 51 | 284 | 0.0 | 1.7 | 0.00 | 0.08 | 0.00 | 88 | 1015.6 |
| 20260507184005 | 51 | 284 | 0.9 | 1.7 | 0.00 | 0.08 | 0.00 | 88 | 1015.3 |
| 20260507183005 | 52 | 285 | 1.7 | 2.6 | 0.00 | 0.08 | 0.00 | 87 | 1015.4 |
| 20260507181505 | 54 | 285 | 0.0 | 0.0 | 0.00 | 0.08 | 0.00 | 86 | 1015.1 |
| 20260507180005 | 55 | 285 | 0.9 | 1.7 | 0.00 | 0.08 | 0.00 | 83 | 1015.1 |
| 20260507174505 | 55 | 285 | 0.0 | 0.0 | 0.00 | 0.08 | 0.00 | 81 | 1015.1 |
| 20260507173505 | 55 | 285 | 0.0 | 2.6 | 0.00 | 0.08 | 0.00 | 80 | 1015.2 |
| 20260507173005 | 55 | 286 | 1.7 | 2.6 | 0.00 | 0.08 | 0.00 | 79 | 1015.2 |
| 20260507170504 | 58 | 292 | 0.0 | 1.7 | 0.00 | 0.08 | 0.00 | 69 | 1014.9 |
| 20260507170007 | 58 | 297 | 1.7 | 4.3 | 0.00 | 0.08 | 0.00 | 68 | 1014.9 |
| 20260507164006 | 62 | 280 | 1.7 | 2.6 | 0.00 | 0.08 | 0.00 | 60 | 1014.9 |
| 20260507163505 | 60 | 239 | 0.0 | 0.0 | 0.00 | 0.08 | 0.00 | 62 | 1014.9 |
| 20260507163005 | 59 | 239 | 0.0 | 2.6 | 0.00 | 0.08 | 0.00 | 66 | 1014.9 |
| 20260507161005 | 60 | 253 | 0.0 | 1.7 | 0.00 | 0.08 | 0.00 | 65 | 1015.0 |
| 20260507160504 | 58 | 234 | 0.9 | 1.7 | 0.00 | 0.08 | 0.00 | 65 | 1014.9 |
| 20260507160005 | 58 | 286 | 0.9 | 2.6 | 0.00 | 0.08 | 0.00 | 70 | 1015.2 |
| 20260507154005 | 58 | 248 | 0.0 | 0.0 | 0.00 | 0.08 | 0.00 | 74 | 1015.2 |
| 20260507153504 | 57 | 250 | 0.9 | 2.6 | 0.00 | 0.08 | 0.00 | 73 | 1015.2 |
| 20260507153005 | 56 | 225 | 0.0 | 2.6 | 0.00 | 0.08 | 0.00 | 75 | 1015.2 |
| 20260507151505 | 57 | 289 | 1.7 | 2.6 | 0.00 | 0.08 | 0.00 | 72 | 1015.5 |
| 20260507150504 | 57 | 254 | 0.0 | 2.6 | 0.00 | 0.09 | 0.00 | 77 | 1015.2 |
| 20260507150006 | 57 | 291 | 0.9 | 4.3 | 0.00 | 0.09 | 0.00 | 77 | 1015.2 |
| 20260507144504 | 56 | 246 | 0.0 | 1.7 | 0.00 | 0.09 | 0.00 | 79 | 1015.2 |
| 20260507144005 | 56 | 271 | 0.9 | 2.6 | 0.00 | 0.09 | 0.00 | 79 | 1015.2 |
| 20260507143505 | 56 | 281 | 0.9 | 2.6 | 0.00 | 0.09 | 0.00 | 78 | 1015.2 |
| 20260507143004 | 56 | 268 | 0.9 | 4.3 | 0.00 | 0.09 | 0.00 | 79 | 1015.2 |
| 20260507141505 | 56 | 285 | 1.7 | 2.6 | 0.00 | 0.14 | 0.00 | 77 | 1015.2 |
| 20260507141004 | 56 | 273 | 0.9 | 2.6 | 0.00 | 0.14 | 0.00 | 78 | 1015.2 |
| 20260507140504 | 56 | 265 | 0.0 | 1.7 | 0.00 | 0.14 | 0.00 | 78 | 1015.2 |
| 20260507140005 | 55 | 284 | 0.0 | 6.1 | 0.00 | 0.14 | 0.00 | 79 | 1015.3 |
| 20260507134505 | 55 | 271 | 0.0 | 2.6 | 0.00 | 0.14 | 0.00 | 78 | 1015.3 |
| 20260507134004 | 54 | 285 | 1.7 | 2.6 | 0.00 | 0.14 | 0.00 | 78 | 1015.6 |
| 20260507133505 | 54 | 283 | 1.7 | 2.6 | 0.00 | 0.14 | 0.00 | 77 | 1015.3 |
| 20260507133005 | 54 | 285 | 2.6 | 6.1 | 0.00 | 0.14 | 0.00 | 79 | 1015.5 |
| 20260507131505 | 55 | 275 | 0.0 | 4.3 | 0.00 | 0.14 | 0.00 | 81 | 1015.6 |
| 20260507131004 | 54 | 275 | 0.9 | 2.6 | 0.00 | 0.14 | 0.00 | 81 | 1015.5 |
| 20260507130505 | 54 | 284 | 0.9 | 4.3 | 0.00 | 0.14 | 0.00 | 82 | 1015.6 |
| 20260507124504 | 55 | 285 | 2.6 | 4.3 | 0.00 | 0.15 | 0.00 | 78 | 1015.3 |
| 20260507124004 | 55 | 280 | 0.9 | 2.6 | 0.00 | 0.15 | 0.00 | 77 | 1015.4 |
| 20260507123504 | 55 | 310 | 2.6 | 4.3 | 0.00 | 0.16 | 0.00 | 76 | 1015.2 |
| 20260507123004 | 55 | 298 | 0.0 | 4.3 | 0.00 | 0.16 | 0.00 | 77 | 1015.2 |
| 20260507121504 | 55 | 262 | 0.0 | 6.1 | 0.00 | 0.16 | 0.00 | 78 | 1015.2 |
| 20260507121005 | 54 | 294 | 4.3 | 6.1 | 0.00 | 0.16 | 0.00 | 78 | 1015.0 |
| 20260507114504 | 56 | 279 | 0.9 | 4.3 | 0.00 | 0.16 | 0.00 | 77 | 1014.9 |
| 20260507114004 | 55 | 283 | 1.7 | 4.3 | 0.00 | 0.16 | 0.00 | 77 | 1014.9 |
| 20260507113504 | 54 | 281 | 3.5 | 6.1 | 0.00 | 0.16 | 0.00 | 80 | 1014.9 |
| 20260507113004 | 54 | 284 | 1.7 | 8.7 | 0.00 | 0.16 | 0.00 | 82 | 1014.9 |
| 20260507111506 | 53 | 308 | 3.5 | 6.1 | 0.00 | 0.16 | 0.00 | 82 | 1014.9 |
| 20260507111004 | 53 | 298 | 2.6 | 7.0 | 0.00 | 0.16 | 0.00 | 82 | 1014.9 |
| 20260507110004 | 52 | 276 | 2.6 | 11.3 | 0.00 | 0.16 | 0.00 | 83 | 1014.9 |
| 20260507104504 | 53 | 279 | 1.7 | 7.0 | 0.00 | 0.16 | 0.00 | 84 | 1014.9 |
| 20260507103505 | 53 | 279 | 4.3 | 7.0 | 0.00 | 0.16 | 0.00 | 84 | 1014.7 |
| 20260507103005 | 53 | 286 | 4.3 | 6.1 | 0.00 | 0.16 | 0.00 | 84 | 1014.7 |
| 20260507101506 | 51 | 285 | 1.7 | 6.1 | 0.00 | 0.16 | 0.00 | 86 | 1014.9 |
| 20260507101004 | 51 | 275 | 1.7 | 6.1 | 0.00 | 0.16 | 0.00 | 86 | 1014.9 |
| 20260507100504 | 51 | 286 | 2.6 | 6.1 | 0.00 | 0.16 | 0.00 | 86 | 1014.9 |
| 20260507100004 | 51 | 264 | 2.6 | 8.7 | 0.00 | 0.16 | 0.00 | 87 | 1014.7 |
| 20260507094005 | 51 | 285 | 1.7 | 4.3 | 0.00 | 0.16 | 0.00 | 86 | 1014.6 |
| 20260507093505 | 51 | 276 | 1.7 | 4.3 | 0.00 | 0.16 | 0.00 | 85 | 1014.6 |
| 20260507093006 | 51 | 274 | 1.7 | 7.0 | 0.00 | 0.16 | 0.00 | 85 | 1014.6 |
| 20260507091506 | 50 | 270 | 4.3 | 7.0 | 0.00 | 0.16 | 0.00 | 86 | 1014.6 |